Portada
METAR-TAF:

METAR-TAF

Aeroports :

Sikeston, Missouri, Estats Units d'Amèrica

latitud: 36-53-56N, longitud: 089-33-42W, altitud: 96 m

Observació

L'informe es va fer fa 23 minuts, a les 17:55 UTC
Vent 7 kt del Sud-Oest
Temperatura 33°C
Humitat 46%
Pressió 1015 hPa
Visibilitat: 16.1 km
Cel clar

METAR: KSIK 111755Z AUTO 22007KT 10SM CLR 33/20 A2998 RMK AO2

Hora: 13:18 (18:18 UTC)


TAF: manca

Observacions i pronòstics meteorològics de més de 4000 aeroports (METAR i TAF).

Les estacions disponibles són els punts grocs i vermells al mapa.

Posi el ratolí al punt desitjat per veure el nom de l'estació.

Feu clic per veure les observacions i els pronòstics meteorològics.

Per canviar el mapa: feu clic els botons verds amb una creu de color negre per apropar; al botó verd amb un guió per allunyar la imatge; o en les fletxes verdes per a mapes adjacents.


METAR-TAF: